Fergus Falls, MN

1:03 PM CDT on August 22, 2017 (GMT -0500)
Fergus Falls Municipal-Mickelson

Weather History for KFFM - January, 2014

Change the Weather History Date:

Wednesday, January 22, 2014

  Actual Average Record
Temperature  
Mean Temperature -4 °F -  
Max Temperature 5 °F 23 °F 38 °F (1989)
Min Temperature -14 °F 2 °F -26 °F (1963)
Degree Days  
Heating Degree Days 70    
Moisture  
Dew Point -13 °F    
Average Humidity 73    
Maximum Humidity 85    
Minimum Humidity 65    
Precipitation  
Precipitation 0.00 in - - ()
Sea Level Pressure  
Sea Level Pressure 30.32 in    
Wind  
Wind Speed 18 mph (NNW)    
Max Wind Speed 32 mph    
Max Gust Speed 41 mph    
Visibility 4 miles    
Events Snow    
Averages and records for this station are not official NWS values.
T = Trace of Precipitation, MM = Missing Value Source: NWS Daily Summary

Daily Weather History Graph

Daily Weather History Graph

Search for Another Location

Airport or City:

Trip Planner

Search our weather history database for the weather conditions in past years. The results will help you decide how hot, cold, wet, or windy it might be!

Date:

Astronomy

Jan. 22, 2014 Rise Set
Actual Time 7:58 AM CST 5:14 PM CST
Civil Twilight 7:25 AM CST 5:47 PM CST
Nautical Twilight 6:48 AM CST 6:24 PM CST
Astronomical Twilight 6:12 AM CST 7:00 PM CST
Moon No Moon Rise 10:36 AM CST
Length of Visible Light 10h 22m
Length of Day
9h 16m
Waning Gibbous, 65% of the Moon is Illuminated
Jan 22
Waning Gibbous
Jan 23
Last Quarter
Jan 30
New
Feb 6
First Quarter
Feb 14
Full

Hourly Weather History & Observations

Time (CST) Temp. Windchill Dew Point Humidity Pressure Visibility Wind Dir Wind Speed Gust Speed Precip Events Conditions
12:13 AM 5.0 °F -11.6 °F -0.4 °F 78% 30.05 in 5.0 mi NNW 12.7 mph - N/A   Haze
12:33 AM 5.0 °F -12.3 °F -0.4 °F 78% 30.05 in 7.0 mi NNW 13.8 mph - N/A   Overcast
12:53 AM 5.0 °F -12.3 °F -0.4 °F 78% 30.05 in 5.0 mi NNW 13.8 mph - N/A   Haze
1:13 AM 5.0 °F -10.8 °F -0.4 °F 78% 30.05 in 7.0 mi NNW 11.5 mph 19.6 mph N/A   Overcast
1:33 AM 5.0 °F -11.6 °F -0.4 °F 78% 30.05 in 10.0 mi NNW 12.7 mph - N/A   Overcast
1:53 AM 5.0 °F -11.6 °F -0.4 °F 78% 30.04 in 10.0 mi North 12.7 mph 18.4 mph N/A   Overcast
2:13 AM 5.0 °F -10.0 °F -0.4 °F 78% 30.03 in 10.0 mi NNW 10.4 mph - N/A   Overcast
2:33 AM 3.2 °F -13.1 °F -2.2 °F 78% 30.03 in 10.0 mi NNW 11.5 mph 18.4 mph N/A   Overcast
2:53 AM 3.2 °F -9.1 °F -2.2 °F 78% 30.04 in 10.0 mi NNW 6.9 mph - N/A   Overcast
3:13 AM 3.2 °F -9.1 °F -0.4 °F 85% 30.03 in 7.0 mi NNW 6.9 mph - N/A Snow Light Snow
3:33 AM 3.2 °F -12.2 °F -2.2 °F 78% 30.03 in 7.0 mi NNW 10.4 mph - N/A Snow Light Snow
3:53 AM 3.2 °F -14.6 °F -2.2 °F 78% 30.05 in 5.0 mi NNW 13.8 mph - N/A Snow Light Snow
4:13 AM 3.2 °F -14.6 °F -2.2 °F 78% 30.05 in 3.0 mi NNW 13.8 mph 21.9 mph N/A Snow Light Snow
4:33 AM 3.2 °F -13.9 °F -2.2 °F 78% 30.06 in 4.0 mi NNW 12.7 mph 19.6 mph N/A Snow Light Snow
4:53 AM 3.2 °F -15.3 °F -2.2 °F 78% 30.06 in 4.0 mi North 15.0 mph 20.7 mph N/A   Haze
5:13 AM 3.2 °F -17.6 °F -2.2 °F 78% 30.07 in 3.0 mi NNW 19.6 mph 25.3 mph N/A   Haze
5:33 AM 1.4 °F -22.7 °F -2.2 °F 85% 30.07 in 1.0 mi NNW 26.5 mph 34.5 mph N/A Snow Light Snow
5:53 AM 1.4 °F -21.9 °F -4.0 °F 78% 30.08 in 1.2 mi North 24.2 mph 32.2 mph N/A Snow Light Snow
6:13 AM 1.4 °F -21.0 °F -5.8 °F 72% 30.10 in 1.8 mi NNW 21.9 mph 29.9 mph N/A   Haze
6:33 AM -0.4 °F -23.8 °F -7.6 °F 72% 30.12 in 1.5 mi North 23.0 mph 29.9 mph N/A Snow Light Snow
6:53 AM -2.2 °F -26.2 °F -9.4 °F 71% 30.14 in 1.0 mi North 23.0 mph 39.1 mph N/A Snow Light Snow
7:13 AM -4.0 °F -28.6 °F -9.4 °F 78% 30.16 in 1.0 mi North 23.0 mph 35.7 mph N/A Snow Light Snow
7:33 AM -5.8 °F -29.4 °F -11.2 °F 77% 30.18 in 1.2 mi North 19.6 mph 34.5 mph N/A   Haze
7:53 AM -5.8 °F -32.0 °F -11.2 °F 77% 30.18 in 1.2 mi North 25.3 mph 33.4 mph N/A Snow Light Snow
8:13 AM -5.8 °F -31.0 °F -13.0 °F 71% 30.19 in 1.0 mi North 23.0 mph 32.2 mph N/A   Haze
8:33 AM -7.6 °F -36.1 °F -13.0 °F 77% 30.19 in 0.5 mi North 29.9 mph 35.7 mph N/A Snow Light Snow
8:53 AM -7.6 °F -34.8 °F -13.0 °F 77% 30.22 in 0.8 mi NNW 26.5 mph 33.4 mph N/A   Haze
9:13 AM -7.6 °F -35.3 °F -14.8 °F 71% 30.23 in 0.5 mi North 27.6 mph 40.3 mph N/A Snow Light Snow
9:33 AM -9.4 °F -39.0 °F -14.8 °F 77% 30.25 in - NNW 31.1 mph 40.3 mph N/A   Mostly Cloudy
9:53 AM -9.4 °F -39.4 °F -16.6 °F 71% 30.26 in - North 32.2 mph 41.4 mph N/A   Mostly Cloudy
10:13 AM -9.4 °F -35.8 °F -16.6 °F 71% 30.28 in - North 23.0 mph 39.1 mph N/A   Mostly Cloudy
10:33 AM -9.4 °F -36.3 °F -16.6 °F 71% 30.30 in - North 24.2 mph 33.4 mph N/A   Scattered Clouds
10:53 AM -9.4 °F -38.2 °F -18.4 °F 65% 30.30 in - North 28.8 mph 38.0 mph N/A   Scattered Clouds
11:14 AM -11.2 °F -40.6 °F -18.4 °F 70% 30.31 in - North 28.8 mph 38.0 mph N/A   Mostly Cloudy
11:33 AM -11.2 °F -40.1 °F -18.4 °F 70% 30.33 in - North 27.6 mph 39.1 mph N/A   Mostly Cloudy
11:53 AM -11.2 °F -40.6 °F -18.4 °F 70% 30.33 in - North 28.8 mph 36.8 mph N/A   Mostly Cloudy
12:14 PM -11.2 °F -41.5 °F -18.4 °F 70% 30.33 in - North 31.1 mph 36.8 mph N/A   Overcast
12:33 PM -11.2 °F -39.7 °F -18.4 °F 70% 30.34 in - North 26.5 mph 40.3 mph N/A   Scattered Clouds
12:53 PM -11.2 °F -41.0 °F -18.4 °F 70% 30.35 in - NNW 29.9 mph 36.8 mph N/A   Mostly Cloudy
1:14 PM -11.2 °F -40.1 °F -18.4 °F 70% 30.35 in - NNW 27.6 mph 34.5 mph N/A   Mostly Cloudy
1:33 PM -11.2 °F -40.1 °F -18.4 °F 70% 30.36 in - North 27.6 mph 38.0 mph N/A   Mostly Cloudy
1:53 PM -11.2 °F -39.2 °F -18.4 °F 70% 30.38 in - NNW 25.3 mph 33.4 mph N/A   Mostly Cloudy
2:14 PM -11.2 °F -39.7 °F -18.4 °F 70% 30.39 in - NNW 26.5 mph 35.7 mph N/A   Scattered Clouds
2:33 PM -11.2 °F -38.2 °F -18.4 °F 70% 30.40 in - NNW 23.0 mph 33.4 mph N/A   Clear
2:53 PM -11.2 °F -39.2 °F -18.4 °F 70% 30.41 in - NNW 25.3 mph 31.1 mph N/A   Scattered Clouds
3:13 PM -11.2 °F -40.6 °F -18.4 °F 70% 30.42 in - NNW 28.8 mph 34.5 mph N/A   Scattered Clouds
3:33 PM -11.2 °F -39.7 °F -18.4 °F 70% 30.42 in - North 26.5 mph 36.8 mph N/A   Clear
3:53 PM -11.2 °F -37.0 °F -18.4 °F 70% 30.45 in - NNW 20.7 mph 35.7 mph N/A   Clear
4:13 PM -11.2 °F -38.2 °F -18.4 °F 70% 30.46 in - NNW 23.0 mph 34.5 mph N/A   Clear
4:33 PM -11.2 °F -37.6 °F -18.4 °F 70% 30.47 in - NNW 21.9 mph 28.8 mph N/A   Scattered Clouds
4:53 PM -11.2 °F -38.2 °F -18.4 °F 70% 30.49 in - NNW 23.0 mph 32.2 mph N/A   Clear
5:13 PM -11.2 °F -35.8 °F -18.4 °F 70% 30.50 in - NNW 18.4 mph - N/A   Clear
5:33 PM -11.2 °F -37.0 °F -18.4 °F 70% 30.50 in - NNW 20.7 mph 27.6 mph N/A   Clear
5:53 PM -13.0 °F -39.4 °F -20.2 °F 70% 30.51 in - NNW 20.7 mph 31.1 mph N/A   Clear
6:13 PM -13.0 °F -40.6 °F -20.2 °F 70% 30.51 in - NNW 23.0 mph 28.8 mph N/A   Clear
6:33 PM -13.0 °F -40.6 °F -20.2 °F 70% 30.53 in - NNW 23.0 mph - N/A   Clear
6:53 PM -14.8 °F -41.8 °F -20.2 °F 77% 30.54 in - North 20.7 mph 28.8 mph N/A   Clear
7:13 PM -14.8 °F -40.5 °F -20.2 °F 77% 30.54 in - North 18.4 mph 28.8 mph N/A   Clear
7:33 PM -14.8 °F -39.8 °F -20.2 °F 77% 30.55 in - North 17.3 mph 31.1 mph N/A   Clear
7:53 PM -13.0 °F -37.5 °F -20.2 °F 70% 30.55 in - North 17.3 mph 26.5 mph N/A   Clear
8:13 PM -13.0 °F -40.0 °F -20.2 °F 70% 30.56 in - NNW 21.9 mph 26.5 mph N/A   Clear
8:34 PM -13.0 °F -38.2 °F -20.2 °F 70% 30.57 in - NNW 18.4 mph - N/A   Scattered Clouds
8:53 PM -13.0 °F -38.2 °F -20.2 °F 70% 30.58 in - North 18.4 mph 28.8 mph N/A   Mostly Cloudy
9:13 PM -11.2 °F -34.4 °F -18.4 °F 70% 30.59 in - North 16.1 mph 29.9 mph N/A   Overcast
9:34 PM -11.2 °F -34.4 °F -18.4 °F 70% 30.59 in - North 16.1 mph 23.0 mph N/A   Overcast
9:53 PM -11.2 °F -33.7 °F -18.4 °F 70% 30.60 in - NNW 15.0 mph 21.9 mph N/A   Overcast
10:13 PM -11.2 °F -32.9 °F -18.4 °F 70% 30.61 in - NNW 13.8 mph - N/A   Overcast
10:34 PM -11.2 °F -32.9 °F -18.4 °F 70% 30.61 in - NNW 13.8 mph 21.9 mph N/A   Overcast
10:53 PM -13.0 °F -36.0 °F -20.2 °F 70% 30.62 in - NNW 15.0 mph - N/A   Mostly Cloudy
11:13 PM -13.0 °F -36.0 °F -20.2 °F 70% 30.62 in - NNW 15.0 mph - N/A   Mostly Cloudy
11:34 PM -14.8 °F -38.3 °F -20.2 °F 77% 30.64 in - NNW 15.0 mph - N/A   Overcast
11:53 PM -14.8 °F -38.3 °F -20.2 °F 77% 30.64 in - NNW 15.0 mph - N/A   Overcast